www.pogodaiklimat.ru

Погода и климат >> Архив погоды >> Индия >> Pune


ПОГОДА в Pune

  • Прогноз погоды в Pune
  • Монитор погоды в Pune
  • Климат города

АРХИВ ПОГОДЫ в Pune

Время (UTC), дата Ветер
(напр.,м/с)
 
Видим.   Явления Облачность Т
(С)
Тd
(С)
f
(%)
Тe
(С)
Тes
(С)
Комфортность P
(гПа)
Po
(гПа)
Тmin
(С)
Tmax
(С)
R
(мм)
S
(см)
15 14.02 ЮВ 1 4000 м ясно +22.8 +11.1 48 +25 +25 комфорт 1017.5 954.8
18 14.02 штиль 0 4000 м 3/0 1500 м
[Ac trans Ci fib]
+19.8 +12.3 62 +21 +21 комфорт 1019.5 956.0
21 14.02 штиль 0 4000 м ясно +16.9 +11.9 72 +17 +17 1018.2 954.1
00 15.02 ЮВ 1 4000 м 3/0
[Ci fib]
+16.1 +12.3 78 +17 +17 1018.1 954.9
03 15.02 штиль 0 4000 м мгла ясно +19.0 +14.4 75 +20 +24 1020.1 956.4 +14.8
06 15.02 В 2 4000 м ясно +29.4 +12.4 35 +30 +47 жарко 1018.2 956.8
09 15.02 В 1 10 км ясно +30.6 +11.9 32 +31 +46 жарко 1015.2 954.2
12 15.02 В 1 10 км ясно +29.6 +12.2 34 +30 +31 жарко 1014.4 953.2 +31.5
15 15.02 штиль 0 4000 м ясно +22.6 +12.5 53 +25 +25 комфорт 1017.3 954.6
18 15.02 штиль 0 4000 м ясно +20.8 +11.9 57 +23 +23 комфорт 1018.7 955.4
21 15.02 штиль 0 4000 м ясно +18.2 +11.2 64 +18 +18 1017.7 954.4
00 16.02 штиль 0 4000 м ясно +15.0 +11.4 79 +15 +15 1018.5 954.0
03 16.02 штиль 0 4000 м мгла ясно +18.6 +13.6 73 +19 +24 1019.0 955.3 +13.9
06 16.02 В 3 10 км ясно +29.2 +10.2 31 +29 +43 жарко 1016.0 954.8
09 16.02 В 3 10 км 3/0
[Ci fib]
+30.6 +9.5 27 +30 +41 жарко 1012.7 951.8
12 16.02 В 2 10 км 4/0
[Ci fib]
+30.0 +8.5 26 +29 +30 жарко 1011.6 950.6 +31.3
15 16.02 штиль 0 16 км 1/0
[Ci fib]
+22.6 +11.3 49 +25 +25 комфорт 1014.9 952.3
18 16.02 штиль 0 4000 м ясно +20.6 +11.3 55 +22 +22 комфорт 1016.6 953.4
21 16.02 штиль 0 4000 м ясно +17.0 +12.1 73 +17 +17 1016.3 952.4
00 17.02 штиль 0 4000 м ясно +15.6 +11.3 76 +15 +15 1016.0 951.9
03 17.02 штиль 0 4000 м мгла 3/0
[Ci fib]
+18.0 +13.6 75 +18 +22 1017.8 954.0 +13.9
06 17.02 В 3 10 км 4/0
[Ci fib]
+29.0 +10.4 31 +29 +41 жарко 1015.4 954.0
09 17.02 В 3 10 км 3/0
[Ci fib]
+31.4 +8.2 24 +30 +40 жарко 1011.4 950.8
12 17.02 В 1 10 км 5/0
[Ci fib]
+31.2 +7.3 22 +30 +31 жарко 1010.0 949.4 +32.2
15 17.02 штиль 0 4000 м 3/0
[Ci fib]
+23.2 +9.0 40 +25 +25 комфорт 1014.6 952.2
18 17.02 штиль 0 4000 м ясно +19.6 +10.0 54 +21 +21 комфорт 1017.3 953.9
21 17.02 штиль 0 4000 м ясно +15.6 +10.2 70 +15 +15 1017.0 952.9
00 18.02 штиль 0 4000 м ясно +13.8 +10.1 78 +13 +13 1016.9 952.3
03 18.02 штиль 0 4000 м мгла ясно +16.6 +13.9 84 +16 +21 1018.7 954.6 +12.5
06 18.02 В 3 4000 м ясно +29.6 +6.5 23 +28 +41 жарко 1016.0 954.8
09 18.02 В 2 10 км ясно +32.2 +8.5 23 +31 +44 жарко 1011.9 951.4
12 18.02 В 1 10 км ясно +32.4 +8.3 22 +31 +32 жарко 1010.7 950.3 +33.3
15 18.02 штиль 0 4000 м ясно +22.6 +11.3 49 +25 +25 комфорт 1015.1 952.5
18 18.02 штиль 0 4000 м ясно +20.0 +10.9 56 +21 +21 комфорт 1016.9 953.5
21 18.02 штиль 0 4000 м ясно +17.8 +9.9 60 +18 +18 1016.7 953.0
00 19.02 штиль 0 4000 м ясно +14.4 +9.6 73 +14 +14 1016.8 952.4
03 19.02 штиль 0 10 км мгла ясно +19.2 +11.2 60 +20 +25 1018.0 954.6 +13.4
06 19.02 В 1 10 км ясно +31.0 +9.6 27 +31 +49 жарко 1014.9 953.9
09 19.02 В 1 10 км ясно +34.0 +8.4 21 +33 +49 жарко 1010.7 950.5
12 19.02 штиль 0 10 км 1/0
[Ci fib]
+34.0 +7.2 19 +32 +33 жарко 1009.1 949.0 +35.0
15 19.02 З 1 4000 м ясно +27.2 +10.1 34 +28 +28 жарко 1012.4 951.0
18 19.02 штиль 0 4000 м ясно +21.4 +11.0 51 +23 +23 комфорт 1014.0 951.2
21 19.02 штиль 0 4000 м ясно +17.4 +11.0 66 +17 +17 1013.8 950.2
00 20.02 штиль 0 4000 м ясно +15.8 +11.2 74 +16 +16 1013.5 949.5
03 20.02 штиль 0 4000 м 1/0
[Ci fib]
+21.6 +13.3 59 +24 +29 комфорт 1014.0 951.2 +14.4
06 20.02 штиль 0 10 км 1/0
[Ci fib]
+33.8 +9.1 22 +33 +53 опасность
солнечного
удара
1010.7 950.5
09 20.02 З 2 10 км ясно +35.6 +5.5 16 +33 +47 жарко 1006.1 946.6
12 20.02 СЗ 1 10 км ясно +33.0 +7.7 21 +31 +33 жарко 1006.2 946.1 +35.6
15 20.02 З 2 4000 м ясно +28.0 +6.1 25 +27 +27 жарко 1010.0 948.7
18 20.02 штиль 0 4000 м ясно +22.6 +7.6 38 +24 +24 комфорт 1011.4 949.0
21 20.02 штиль 0 4000 м ясно +17.0 +8.5 57 +17 +17 1011.7 948.0
00 21.02 штиль 0 4000 м ясно +14.4 +8.8 69 +14 +14 1011.6 1047.5
03 21.02 штиль 0 10 км ясно +18.8 +12.7 68 +20 +24 1012.5 949.2 +12.3
06 21.02 СЗ 1 10 км ясно +32.2 -0.6 12 +29 +47 жарко 1010.1 949.5
09 21.02 З 3 10 км ясно +34.0 -2.2 10 +30 +41 жарко 1006.7 946.8

 

Местоположение метеостанции Pune (Maharashtra, Индия): широта 18.53 долгота 73.85 высота над уровнем моря 559 м.

В архиве по умолчанию представлена погода в Pune за последнюю неделю. Архивные данные за месяц целиком и за предыдущие месяцы, начиная с января 2011 года, Вы можете получить, выбрав интересующий диапазон дат из раскрывающегося списка и нажав кнопку "Ввод!".

Внимание! Время в таблицах - всемирное. Для получения местного времени необходимо прибавить поправку, которая в Pune равна 5.5 ч.

Смотрите также архив погоды в соседних городах и на ближайших метеорологических станциях:

Погода в Bhira (Maharashtra, Индия) (48 км)
Погода в Mahabaleshwar (Maharashtra, Индия) (69 км)
Погода в Alibag (Maharashtra, Индия) (104 км)
Погода в Harnai (Maharashtra, Индия) (112 км)
Погода в Satara (Maharashtra, Индия) (114 км)
Погода в Mumbai Colaba (Maharashtra, Индия) (116 км)
Погода в Ahmednagar (Maharashtra, Индия) (117 км)
Погода в Mumbai (Maharashtra, Индия) (124 км)
Погода в Jeur (Maharashtra, Индия) (141 км)
Погода в Nashik (Maharashtra, Индия) (164 км)

Пояснения к столбцам:

Ветер - указаны скорость ветра в м/с - средняя за 10 мин, порывы в срок и между сроками (в фигурных скобках) и направление, откуда дует ветер: С - северный, СВ - северо-восточный, В - восточный, ЮВ - юго-восточный, Ю - южный, ЮЗ - юго-западный, З - западный, СЗ - северо-западный.
Видимость - горизонтальная дальность видимости в метрах или километрах. При видимости от 1 до 10 км при отсутствии осадков обычно наблюдается дымка, при ухудшении видимости до 1 км и менее - туман. В сухую погоду видимость может ухудшаться дымом, пылью или мглою.
Явления - указаны атмосферные явления, наблюдавшиеся в срок или в последний час перед сроком; фигурными скобками обозначены явления, наблюдавшиеся между сроками (за 1-3 часа до срока); квадратными скобками обозначены град или гололедные отложения с указанием их диаметра в мм.
Облачность - указаны через наклонную черту общая и нижняя облачность в баллах и высота нижней границы облаков в метрах; квадратными скобками обозначены формы облаков: Ci - перистые, Cs - перисто-слоистые, Cc - перисто-кучевые, Ac - высококучевые, As - высокослоистые, Sc - слоисто-кучевые, Ns - слоисто-дождевые, Cu - кучевые, Cb - кучево-дождевые. Подробнее классификацию облаков см. в Атласе облаков (PDF).
T - Температура воздуха - температура, измеренная на высоте 2 м над землей.
Td - Температура точки росы - температура, при понижении до которой содержащийся в воздухе водяной пар достигнет насыщения.
f - Относительная влажность воздуха - влажноcть воздуха, измеренная на высоте 2 м над землей.
Te - Эффективная температура - температура, которую ощущает одетый по сезону человек в тени. Характеристика душности погоды. При расчете учитывается влияние влажности воздуха и скорости ветра на теплоощущения человека.
Tes - Эффективная температура на солнце - температура, которую ощущает человек, с поправкой на солнечный нагрев. Характеристика знойности погоды. Зависит от высоты солнца над горизонтом, облачности и скорости ветра. Ночью, в пасмурную погоду, а также при ветре 12 м/с и более поправка равна нулю.
P - Атмосферное давление - приведенное к уровню моря атмосферное давление.
Po - Атмосферное давление - измеренное на уровне метеостанции атмосферное давление.
Tmin - Минимальная температура - минимум температуры воздуха на высоте 2 м над землей.
Tmax - Максимальная температура - максимум температуры воздуха на высоте 2 м над землей.
R - Количество осадков - Количество выпавших осадков, мм. При наведении курсора мыши на число - период времени, за который выпало указанное количество осадков.
S - Снежный покров - Высота снежного покрова, см. При наведении курсора мыши на число - состояние снежного покрова и степень покрытия местности в баллах.